TimeCST,TemperatureF,Dew PointF,Humidity,Sea Level PressureIn,VisibilityMPH,Wind Direction,Wind SpeedMPH,Gust SpeedMPH,PrecipitationIn,Events,Conditions,WindDirDegrees,DateUTC
12:55 AM,34.0,33.1,96,29.53,4.0,North,4.6,-,0.07,Rain,Light Rain,350,2013-01-30 06:55:00
1:55 AM,33.1,32.0,96,29.46,9.0,NNE,15.0,-,0.02,,Overcast,30,2013-01-30 07:55:00
2:55 AM,33.1,33.1,100,29.43,10.0,NE,13.8,-,N/A,,Overcast,40,2013-01-30 08:55:00
3:55 AM,33.1,33.1,100,29.44,3.0,WNW,6.9,-,N/A,,Overcast,300,2013-01-30 09:55:00
4:04 AM,33.8,33.8,100,29.40,2.0,NNW,5.8,-,0.02,Rain,Rain,330,2013-01-30 10:04:00
4:55 AM,32.0,32.0,100,29.44,1.5,WNW,9.2,-,0.06,Snow,Light Snow,300,2013-01-30 10:55:00
5:10 AM,32.0,32.0,100,29.44,0.8,WNW,11.5,-,0.01,Snow,Light Snow,290,2013-01-30 11:10:00
5:17 AM,32.0,32.0,100,29.45,0.8,WNW,13.8,-,0.02,Snow,Light Snow,290,2013-01-30 11:17:00
5:34 AM,32.0,32.0,100,29.46,1.2,WNW,12.7,-,0.03,Snow,Light Snow,290,2013-01-30 11:34:00
5:55 AM,32.0,30.9,96,29.48,1.0,NW,17.3,26.5,0.04,Snow,Light Snow,320,2013-01-30 11:55:00
6:06 AM,32.0,30.2,93,29.45,2.0,NW,19.6,29.9,0.00,Snow,Light Snow,320,2013-01-30 12:06:00
6:13 AM,30.2,28.4,93,29.45,3.0,NNW,15.0,29.9,0.00,Snow,Light Snow,330,2013-01-30 12:13:00
6:22 AM,30.2,28.4,93,29.45,4.0,NNW,17.3,26.5,0.00,,Overcast,330,2013-01-30 12:22:00
6:55 AM,30.0,27.0,88,29.47,10.0,North,20.7,32.2,0.00,,Mostly Cloudy,350,2013-01-30 12:55:00
7:37 AM,30.2,26.6,86,29.48,10.0,NNW,17.3,24.2,N/A,,Overcast,340,2013-01-30 13:37:00
7:55 AM,28.9,26.1,89,29.52,10.0,NW,12.7,26.5,N/A,,Overcast,320,2013-01-30 13:55:00
8:27 AM,28.4,26.6,93,29.51,8.0,NW,17.3,24.2,0.00,Snow,Light Snow,310,2013-01-30 14:27:00
8:48 AM,28.4,24.8,86,29.51,1.8,NW,15.0,21.9,0.00,Snow,Light Snow,310,2013-01-30 14:48:00
8:55 AM,28.0,25.0,88,29.55,1.5,NW,15.0,21.9,0.00,Snow,Light Snow,320,2013-01-30 14:55:00
9:55 AM,27.0,25.0,92,29.58,1.0,NW,13.8,25.3,0.01,Snow,Light Snow,310,2013-01-30 15:55:00
10:11 AM,26.6,24.8,93,29.56,1.0,NW,13.8,25.3,0.01,Snow,Light Snow,310,2013-01-30 16:11:00
10:20 AM,26.6,24.8,93,29.56,0.5,NW,15.0,24.2,0.01,Fog-Snow,Snow,310,2013-01-30 16:20:00
10:32 AM,26.6,24.8,93,29.57,0.8,WNW,13.8,25.3,0.01,Snow,Light Snow,300,2013-01-30 16:32:00
10:38 AM,26.6,24.8,93,29.57,1.0,NW,16.1,25.3,0.01,Snow,Light Snow,310,2013-01-30 16:38:00
10:55 AM,27.0,23.0,85,29.62,1.5,WNW,16.1,27.6,0.01,Snow,Light Snow,300,2013-01-30 16:55:00
11:13 AM,26.6,23.0,86,29.60,1.2,WNW,16.1,27.6,0.00,Snow,Light Snow,300,2013-01-30 17:13:00
11:21 AM,26.6,21.2,80,29.60,0.8,NW,17.3,26.5,0.00,Snow,Light Snow,310,2013-01-30 17:21:00
11:30 AM,26.6,21.2,80,29.61,1.0,NW,17.3,28.8,0.00,Snow,Light Snow,310,2013-01-30 17:30:00
11:40 AM,26.6,21.2,80,29.61,1.0,NW,20.7,31.1,0.00,Snow,Light Snow,310,2013-01-30 17:40:00
11:55 AM,25.0,21.9,88,29.65,0.5,NW,19.6,27.6,0.00,Fog-Snow,Snow,310,2013-01-30 17:55:00
12:26 PM,24.8,21.2,86,29.62,0.8,NW,18.4,33.4,0.01,Snow,Light Snow,310,2013-01-30 18:26:00
12:36 PM,24.8,21.2,86,29.62,1.2,NW,19.6,27.6,0.01,Snow,Light Snow,310,2013-01-30 18:36:00
12:55 PM,25.0,19.9,81,29.66,2.5,NW,17.3,33.4,0.01,Snow,Light Snow,310,2013-01-30 18:55:00
1:02 PM,26.6,19.4,74,29.63,5.0,NW,18.4,28.8,0.00,Snow,Light Snow,310,2013-01-30 19:02:00
1:55 PM,25.0,18.0,75,29.68,10.0,WNW,17.3,27.6,0.00,,Overcast,300,2013-01-30 19:55:00
2:55 PM,25.0,17.1,72,29.72,10.0,NW,16.1,31.1,N/A,,Overcast,310,2013-01-30 20:55:00
3:55 PM,24.1,16.0,71,29.75,10.0,NW,15.0,27.6,N/A,,Overcast,310,2013-01-30 21:55:00
4:55 PM,24.1,16.0,71,29.78,7.0,WNW,16.1,28.8,0.00,Snow,Light Snow,300,2013-01-30 22:55:00
5:55 PM,23.0,15.1,72,29.81,10.0,West,13.8,29.9,0.00,,Overcast,280,2013-01-30 23:55:00
6:55 PM,23.0,12.9,65,29.86,10.0,WNW,19.6,28.8,0.00,,Overcast,300,2013-01-31 00:55:00
7:55 PM,23.0,14.0,68,29.88,9.0,WNW,16.1,25.3,0.00,,Overcast,300,2013-01-31 01:55:00
8:55 PM,21.9,12.9,68,29.91,10.0,WNW,12.7,20.7,0.00,,Overcast,290,2013-01-31 02:55:00
9:55 PM,21.9,16.0,78,29.92,7.0,West,11.5,-,0.00,Snow,Light Snow,280,2013-01-31 03:55:00
10:55 PM,21.9,14.0,72,29.92,10.0,West,11.5,17.3,0.00,,Overcast,270,2013-01-31 04:55:00
11:55 PM,21.9,14.0,72,29.93,10.0,WSW,9.2,-,N/A,,Overcast,250,2013-01-31 05:55:00